Weather History for CTRA - May, 2014

Change the Weather History Date:

Sunday, May 25, 2014

  Actual Average Record
Temperature  
Mean Temperature 70 °F -  
Max Temperature 80 °F - - ()
Min Temperature 61 °F - - ()
Cooling Degree Days 6    
Growing Degree Days 20 (Base 50)    
Moisture  
Dew Point 50 °F    
Average Humidity 52    
Maximum Humidity 84    
Minimum Humidity 28    
Precipitation  
Precipitation 0.00 in - - ()
Sea Level Pressure  
Sea Level Pressure 29.81 in    
Wind  
Wind Speed 5 mph ()    
Max Wind Speed 9 mph    
Max Gust Speed 17 mph    
T = Trace of Precipitation, MM = Missing Value Source: Averaged Metar Reports

Daily Weather History Graph

Daily Weather History Graph

Search for Another Location

Airport or City:

Trip Planner

Search our weather history database for the weather conditions in past years. The results will help you decide how hot, cold, wet, or windy it might be!

Date:

Astronomy

May. 25, 2014 Rise Set
Actual Time 5:18 AM CDT 9:06 PM CDT
Civil Twilight 4:37 AM CDT 9:47 PM CDT
Nautical Twilight 3:41 AM CDT 10:43 PM CDT
Astronomical Twilight 2:15 AM CDT 12:12 AM CDT
Moon 3:43 AM CDT (5/25) 5:50 PM CDT (5/25)
Length of Visible Light 17h 09m
Length of Day
15h 47m
Waning Crescent, 10% of the Moon is Illuminated
May 25
Waning Crescent
May 28
New
Jun 5
First Quarter
Jun 12
Full
Jun 19
Last Quarter

Hourly Weather History & Observations

Time (CDT) Temp. Dew Point Humidity Pressure Visibility Wind Dir Wind Speed Gust Speed Precip Events Conditions
12:00 AM 66.6 °F 52.7 °F 61% 29.87 in - WSW 6.9 mph - N/A   Unknown
1:00 AM 61.7 °F 56.7 °F 84% 29.85 in - WSW 5.8 mph - N/A   Unknown
2:00 AM 66.0 °F 54.0 °F 65% 29.82 in - SW 9.2 mph 17.3 mph N/A   Unknown
3:00 AM 65.5 °F 52.9 °F 64% 29.81 in - SW 6.9 mph - N/A   Unknown
4:00 AM 66.0 °F 52.7 °F 62% 29.85 in - NW 4.6 mph - N/A   Unknown
5:00 AM 62.8 °F 52.7 °F 70% 29.85 in - South 3.5 mph - N/A   Unknown
6:00 AM 61.5 °F 54.1 °F 77% 29.85 in - SSW 4.6 mph - N/A   Unknown
7:00 AM 63.3 °F 54.3 °F 72% 29.86 in - SSW 4.6 mph - N/A   Unknown
8:00 AM 64.8 °F 53.8 °F 68% 29.86 in - SSW 5.8 mph - N/A   Unknown
9:00 AM 68.2 °F 50.4 °F 53% 29.86 in - SW 5.8 mph - N/A   Unknown
10:00 AM 74.1 °F 51.1 °F 44% 29.84 in - SW 4.6 mph - N/A   Unknown
11:00 AM 77.2 °F 47.1 °F 35% 29.84 in - WSW 8.1 mph - N/A   Unknown
12:00 PM 80.1 °F 45.1 °F 29% 29.82 in - SW 8.1 mph - N/A   Unknown
1:00 PM 78.8 °F 45.1 °F 30% 29.81 in - SSW 6.9 mph - N/A   Unknown
2:00 PM 79.5 °F 44.2 °F 29% 29.78 in - WSW 4.6 mph - N/A   Unknown
3:00 PM 79.9 °F 45.5 °F 30% 29.78 in - SSW 3.5 mph - N/A   Unknown
4:00 PM 80.1 °F 45.1 °F 29% 29.76 in - WSW 5.8 mph - N/A   Unknown
5:00 PM 79.5 °F 43.5 °F 28% 29.75 in - WSW 3.5 mph - N/A   Unknown
6:00 PM 77.7 °F 44.4 °F 31% 29.75 in - WSW 2.3 mph - N/A   Unknown
7:00 PM 75.4 °F 44.8 °F 34% 29.75 in - West 2.3 mph - N/A   Unknown
9:00 PM 65.3 °F 54.1 °F 67% 29.76 in - NW 2.3 mph - N/A   Unknown
10:00 PM 66.4 °F 54.1 °F 65% 29.77 in - West 4.6 mph - N/A   Unknown
11:00 PM 65.7 °F 55.0 °F 69% 29.77 in - West 4.6 mph - N/A   Unknown